"Sample Date","Sample Time","Sensor Name","Sample Value","Units","Flow Rate","Sample Interval","Sample Volume","Laser Status","Number Channels","Micron Size 0","Counts/Channel 0","Micron Size 1","Counts/Channel 1","Micron Size 2","Counts/Channel 2","Micron Size 3","Counts/Channel 3","Micron Size 4","Counts/Channel 4","Micron Size 5","Counts/Channel 5","Micron Size 6","Counts/Channel 6","Micron Size 7","Counts/Channel 7","Micron Size 8","Counts/Channel 8","Micron Size 9","Counts/Channel 9","Micron Size 10","Counts/Channel 10","Micron Size 11","Counts/Channel 11","Micron Size 12","Counts/Channel 12","Micron Size 13","Counts/Channel 13","Micron Size 14","Counts/Channel 14","Micron Size 15","Counts/Channel 15","Micron Size 16","Counts/Channel 16","Micron Size 17","Counts/Channel 17","Micron Size 18","Counts/Channel 18","Micron Size 19","Counts/Channel 19","Micron Size 20","Counts/Channel 20","Micron Size 21","Counts/Channel 21","Micron Size 22","Counts/Channel 22","Micron Size 23","Counts/Channel 23","Micron Size 24","Counts/Channel 24","Micron Size 25","Counts/Channel 25","Micron Size 26","Counts/Channel 26","Micron Size 27","Counts/Channel 27","Micron Size 28","Counts/Channel 28","Micron Size 29","Counts/Channel 29","Micron Size 30","Counts/Channel 30","Micron Size 31","Counts/Channel 31"
"07/01/06","21:00:02","AMMA06",58095.000,"cc",28319.565,6.00,2831.957,1,6,0.100,30205.000,0.200,22396.000,0.300,3729.000,0.500,1067.000,1.000,697.000,5.000,1.000
"07/01/06","21:00:08","AMMA06",58672.000,"cc",28275.856,6.00,2827.586,1,6,0.100,30415.000,0.200,22683.000,0.300,3711.000,0.500,1169.000,1.000,694.000,5.000,0
"07/01/06","21:00:14","AMMA06",59159.000,"cc",28347.801,6.00,2834.780,1,6,0.100,30678.000,0.200,22980.000,0.300,3714.000,0.500,1048.000,1.000,739.000,5.000,0
"07/01/06","21:00:20","AMMA06",59037.000,"cc",28368.438,6.00,2836.844,1,6,0.100,30834.000,0.200,22759.000,0.300,3675.000,0.500,1042.000,1.000,726.000,5.000,1.000
"07/01/06","21:00:26","AMMA06",58825.000,"cc",28360.469,6.00,2836.047,1,6,0.100,30490.000,0.200,22901.000,0.300,3641.000,0.500,1100.000,1.000,693.000,5.000,0
"07/01/06","21:00:32","AMMA06",58136.000,"cc",28277.617,6.00,2827.762,1,6,0.100,30398.000,0.200,22271.000,0.300,3645.000,0.500,1125.000,1.000,697.000,5.000,0
"07/01/06","21:00:38","AMMA06",58121.000,"cc",28306.836,6.00,2830.684,1,6,0.100,30298.000,0.200,22447.000,0.300,3581.000,0.500,1098.000,1.000,697.000,5.000,0
"07/01/06","21:00:44","AMMA06",58447.000,"cc",28336.117,6.00,2833.612,1,6,0.100,30504.000,0.200,22524.000,0.300,3596.000,0.500,1100.000,1.000,722.000,5.000,1.000
"07/01/06","21:00:50","AMMA06",58855.000,"cc",28335.533,6.00,2833.554,1,6,0.100,30834.000,0.200,22572.000,0.300,3623.000,0.500,1090.000,1.000,733.000,5.000,3.000
"07/01/06","21:00:56","AMMA06",58315.000,"cc",28300.641,6.00,2830.064,1,6,0.100,30273.000,0.200,22580.000,0.300,3664.000,0.500,1098.000,1.000,699.000,5.000,1.000
"07/01/06","21:01:02","AMMA06",57969.000,"cc",28327.039,6.00,2832.704,1,6,0.100,30405.000,0.200,22098.000,0.300,3717.000,0.500,1065.000,1.000,684.000,5.000,0
"07/01/06","21:01:08","AMMA06",58426.000,"cc",28306.387,6.00,2830.639,1,6,0.100,30766.000,0.200,22280.000,0.300,3597.000,0.500,1058.000,1.000,724.000,5.000,1.000
"07/01/06","21:01:14","AMMA06",58263.000,"cc",28328.875,6.00,2832.888,1,6,0.100,30157.000,0.200,22556.000,0.300,3768.000,0.500,1046.000,1.000,735.000,5.000,1.000
"07/01/06","21:01:20","AMMA06",58189.000,"cc",28286.316,6.00,2828.632,1,6,0.100,30578.000,0.200,22276.000,0.300,3584.000,0.500,1074.000,1.000,677.000,5.000,0
"07/01/06","21:01:26","AMMA06",58462.000,"cc",28312.359,6.00,2831.236,1,6,0.100,30521.000,0.200,22469.000,0.300,3651.000,0.500,1084.000,1.000,736.000,5.000,1.000
"07/01/06","21:01:32","AMMA06",58111.000,"cc",28342.334,6.00,2834.234,1,6,0.100,30642.000,0.200,22087.000,0.300,3646.000,0.500,1049.000,1.000,687.000,5.000,0
"07/01/06","21:01:38","AMMA06",58554.000,"cc",28307.865,6.00,2830.787,1,6,0.100,30549.000,0.200,22457.000,0.300,3726.000,0.500,1095.000,1.000,727.000,5.000,0
"07/01/06","21:01:44","AMMA06",58364.000,"cc",28287.275,6.00,2828.728,1,6,0.100,30540.000,0.200,22390.000,0.300,3609.000,0.500,1111.000,1.000,714.000,5.000,0
"07/01/06","21:01:50","AMMA06",58610.000,"cc",28317.246,6.00,2831.725,1,6,0.100,30814.000,0.200,22353.000,0.300,3672.000,0.500,1071.000,1.000,700.000,5.000,0
"07/01/06","21:01:56","AMMA06",58074.000,"cc",28306.674,6.00,2830.668,1,6,0.100,30270.000,0.200,22262.000,0.300,3682.000,0.500,1121.000,1.000,739.000,5.000,0
"07/01/06","21:02:02","AMMA06",58426.000,"cc",28351.373,6.00,2835.138,1,6,0.100,30693.000,0.200,22364.000,0.300,3636.000,0.500,1061.000,1.000,671.000,5.000,1.000
"07/01/06","21:02:08","AMMA06",58700.000,"cc",28326.156,6.00,2832.616,1,6,0.100,30778.000,0.200,22439.000,0.300,3704.000,0.500,1040.000,1.000,739.000,5.000,0
"07/01/06","21:02:14","AMMA06",58173.000,"cc",28305.084,6.00,2830.509,1,6,0.100,30324.000,0.200,22478.000,0.300,3569.000,0.500,1069.000,1.000,733.000,5.000,0
"07/01/06","21:02:20","AMMA06",57972.000,"cc",28358.875,6.00,2835.888,1,6,0.100,30141.000,0.200,22328.000,0.300,3720.000,0.500,1100.000,1.000,682.000,5.000,1.000
"07/01/06","21:02:26","AMMA06",58101.000,"cc",28302.051,6.00,2830.205,1,6,0.100,30040.000,0.200,22524.000,0.300,3776.000,0.500,1090.000,1.000,670.000,5.000,1.000
"07/01/06","21:02:32","AMMA06",58313.000,"cc",28304.430,6.00,2830.443,1,6,0.100,30127.000,0.200,22697.000,0.300,3681.000,0.500,1098.000,1.000,710.000,5.000,0
"07/01/06","21:02:38","AMMA06",58520.000,"cc",28295.389,6.00,2829.539,1,6,0.100,30383.000,0.200,22571.000,0.300,3795.000,0.500,1058.000,1.000,713.000,5.000,0
"07/01/06","21:02:44","AMMA06",58551.000,"cc",28340.094,6.00,2834.010,1,6,0.100,30459.000,0.200,22440.000,0.300,3829.000,0.500,1109.000,1.000,714.000,5.000,0
"07/01/06","21:02:50","AMMA06",58586.000,"cc",28349.981,6.00,2834.998,1,6,0.100,30347.000,0.200,22641.000,0.300,3823.000,0.500,1078.000,1.000,696.000,5.000,1.000
"07/01/06","21:02:56","AMMA06",58574.000,"cc",28293.160,6.00,2829.316,1,6,0.100,30030.000,0.200,22837.000,0.300,3844.000,0.500,1089.000,1.000,774.000,5.000,0
"07/01/06","21:03:02","AMMA06",58791.000,"cc",28305.203,6.00,2830.521,1,6,0.100,30294.000,0.200,22986.000,0.300,3766.000,0.500,1083.000,1.000,662.000,5.000,0
"07/01/06","21:03:08","AMMA06",58278.000,"cc",28328.402,6.00,2832.840,1,6,0.100,30141.000,0.200,22542.000,0.300,3771.000,0.500,1063.000,1.000,761.000,5.000,0
"07/01/06","21:03:14","AMMA06",58688.000,"cc",28342.699,6.00,2834.270,1,6,0.100,29805.000,0.200,23103.000,0.300,3902.000,0.500,1132.000,1.000,746.000,5.000,0
"07/01/06","21:03:20","AMMA06",58369.000,"cc",28268.768,6.00,2826.877,1,6,0.100,29743.000,0.200,22939.000,0.300,3896.000,0.500,1082.000,1.000,709.000,5.000,0
"07/01/06","21:03:26","AMMA06",58843.000,"cc",28300.543,6.00,2830.054,1,6,0.100,30127.000,0.200,23090.000,0.300,3846.000,0.500,1038.000,1.000,742.000,5.000,0
"07/01/06","21:03:32","AMMA06",58528.000,"cc",28354.629,6.00,2835.463,1,6,0.100,29896.000,0.200,22889.000,0.300,3876.000,0.500,1063.000,1.000,803.000,5.000,1.000
"07/01/06","21:03:38","AMMA06",58395.000,"cc",28316.736,6.00,2831.674,1,6,0.100,29668.000,0.200,23017.000,0.300,3879.000,0.500,1066.000,1.000,765.000,5.000,0
"07/01/06","21:03:44","AMMA06",58448.000,"cc",28300.092,6.00,2830.009,1,6,0.100,29450.000,0.200,23194.000,0.300,3997.000,0.500,1082.000,1.000,725.000,5.000,0
"07/01/06","21:03:50","AMMA06",58125.000,"cc",28315.496,6.00,2831.550,1,6,0.100,29669.000,0.200,22947.000,0.300,3735.000,0.500,1067.000,1.000,707.000,5.000,0
"07/01/06","21:03:56","AMMA06",58848.000,"cc",28325.543,6.00,2832.554,1,6,0.100,29815.000,0.200,23118.000,0.300,4052.000,0.500,1091.000,1.000,772.000,5.000,0
"07/01/06","21:04:02","AMMA06",58602.000,"cc",28336.520,6.00,2833.652,1,6,0.100,29765.000,0.200,23078.000,0.300,3914.000,0.500,1108.000,1.000,737.000,5.000,0
"07/01/06","21:04:08","AMMA06",58549.000,"cc",28291.576,6.00,2829.158,1,6,0.100,29603.000,0.200,23279.000,0.300,3977.000,0.500,1006.000,1.000,684.000,5.000,0
"07/01/06","21:04:14","AMMA06",58449.000,"cc",28310.133,6.00,2831.013,1,6,0.100,29650.000,0.200,23005.000,0.300,3912.000,0.500,1113.000,1.000,768.000,5.000,1.000
"07/01/06","21:04:20","AMMA06",58530.000,"cc",28322.334,6.00,2832.234,1,6,0.100,29651.000,0.200,23073.000,0.300,3923.000,0.500,1141.000,1.000,741.000,5.000,1.000
"07/01/06","21:04:26","AMMA06",58659.000,"cc",28297.449,6.00,2829.745,1,6,0.100,29662.000,0.200,23193.000,0.300,3981.000,0.500,1111.000,1.000,711.000,5.000,1.000
"07/01/06","21:04:32","AMMA06",58906.000,"cc",28310.379,6.00,2831.038,1,6,0.100,29806.000,0.200,23290.000,0.300,3943.000,0.500,1101.000,1.000,766.000,5.000,0
"07/01/06","21:04:38","AMMA06",58599.000,"cc",28334.037,6.00,2833.404,1,6,0.100,29949.000,0.200,22922.000,0.300,3889.000,0.500,1093.000,1.000,744.000,5.000,2.000
"07/01/06","21:04:44","AMMA06",58552.000,"cc",28252.998,6.00,2825.300,1,6,0.100,29697.000,0.200,23084.000,0.300,4027.000,0.500,1060.000,1.000,684.000,5.000,0
"07/01/06","21:04:50","AMMA06",58880.000,"cc",28352.055,6.00,2835.206,1,6,0.100,29995.000,0.200,23145.000,0.300,3929.000,0.500,1051.000,1.000,758.000,5.000,2.000
"07/01/06","21:04:56","AMMA06",58789.000,"cc",28317.871,6.00,2831.787,1,6,0.100,29924.000,0.200,23056.000,0.300,3995.000,0.500,1076.000,1.000,735.000,5.000,3.000
"07/01/06","21:05:02","AMMA06",59142.000,"cc",28340.381,6.00,2834.038,1,6,0.100,30214.000,0.200,23192.000,0.300,3914.000,0.500,1046.000,1.000,774.000,5.000,2.000
"07/01/06","21:05:08","AMMA06",59057.000,"cc",28356.549,6.00,2835.655,1,6,0.100,30047.000,0.200,23260.000,0.300,3862.000,0.500,1137.000,1.000,751.000,5.000,0
"07/01/06","21:05:14","AMMA06",58755.000,"cc",28296.000,6.00,2829.600,1,6,0.100,30004.000,0.200,23063.000,0.300,3813.000,0.500,1110.000,1.000,765.000,5.000,0
"07/01/06","21:05:20","AMMA06",59020.000,"cc",28280.170,6.00,2828.017,1,6,0.100,30021.000,0.200,23366.000,0.300,3800.000,0.500,1086.000,1.000,747.000,5.000,0
"07/01/06","21:05:26","AMMA06",58853.000,"cc",28308.486,6.00,2830.849,1,6,0.100,30389.000,0.200,22866.000,0.300,3789.000,0.500,1077.000,1.000,732.000,5.000,0
"07/01/06","21:05:32","AMMA06",58281.000,"cc",28324.178,6.00,2832.418,1,6,0.100,30064.000,0.200,22610.000,0.300,3867.000,0.500,1096.000,1.000,642.000,5.000,2.000
"07/01/06","21:05:38","AMMA06",58706.000,"cc",28342.740,6.00,2834.274,1,6,0.100,30455.000,0.200,22601.000,0.300,3863.000,0.500,1080.000,1.000,707.000,5.000,0
"07/01/06","21:05:44","AMMA06",58769.000,"cc",28335.572,6.00,2833.557,1,6,0.100,30271.000,0.200,22995.000,0.300,3751.000,0.500,1066.000,1.000,685.000,5.000,1.000
"07/01/06","21:05:50","AMMA06",58943.000,"cc",28323.227,6.00,2832.323,1,6,0.100,30260.000,0.200,23073.000,0.300,3820.000,0.500,1055.000,1.000,735.000,5.000,0
"07/01/06","21:05:56","AMMA06",58656.000,"cc",28271.100,6.00,2827.110,1,6,0.100,30172.000,0.200,22875.000,0.300,3791.000,0.500,1071.000,1.000,746.000,5.000,1.000
"07/01/06","21:06:02","AMMA06",59071.000,"cc",28324.100,6.00,2832.410,1,6,0.100,30587.000,0.200,22945.000,0.300,3808.000,0.500,1050.000,1.000,681.000,5.000,0
"07/01/06","21:06:08","AMMA06",58358.000,"cc",28278.455,6.00,2827.846,1,6,0.100,29998.000,0.200,22734.000,0.300,3846.000,0.500,1103.000,1.000,677.000,5.000,0
"07/01/06","21:06:14","AMMA06",58546.000,"cc",28305.299,6.00,2830.530,1,6,0.100,30245.000,0.200,22807.000,0.300,3637.000,0.500,1114.000,1.000,743.000,5.000,0
"07/01/06","21:06:20","AMMA06",58921.000,"cc",28346.725,6.00,2834.673,1,6,0.100,30646.000,0.200,22761.000,0.300,3776.000,0.500,1042.000,1.000,695.000,5.000,1.000
"07/01/06","21:06:26","AMMA06",58738.000,"cc",28273.766,6.00,2827.377,1,6,0.100,30446.000,0.200,22712.000,0.300,3755.000,0.500,1056.000,1.000,768.000,5.000,1.000
"07/01/06","21:06:32","AMMA06",58679.000,"cc",28388.387,6.00,2838.839,1,6,0.100,30311.000,0.200,22782.000,0.300,3809.000,0.500,1103.000,1.000,674.000,5.000,0
"07/01/06","21:06:38","AMMA06",59591.000,"cc",28300.387,6.00,2830.039,1,6,0.100,30986.000,0.200,23074.000,0.300,3771.000,0.500,1082.000,1.000,677.000,5.000,1.000
"07/01/06","21:06:44","AMMA06",59210.000,"cc",28348.268,6.00,2834.827,1,6,0.100,30852.000,0.200,22843.000,0.300,3649.000,0.500,1150.000,1.000,716.000,5.000,0
"07/01/06","21:06:50","AMMA06",58834.000,"cc",28291.869,6.00,2829.187,1,6,0.100,30630.000,0.200,22653.000,0.300,3702.000,0.500,1123.000,1.000,726.000,5.000,0
"07/01/06","21:06:56","AMMA06",59327.000,"cc",28324.121,6.00,2832.412,1,6,0.100,30834.000,0.200,22916.000,0.300,3762.000,0.500,1130.000,1.000,685.000,5.000,0
"07/01/06","21:07:02","AMMA06",59288.000,"cc",28335.279,6.00,2833.528,1,6,0.100,30802.000,0.200,22994.000,0.300,3668.000,0.500,1116.000,1.000,708.000,5.000,0
"07/01/06","21:07:08","AMMA06",59496.000,"cc",28304.307,6.00,2830.431,1,6,0.100,31050.000,0.200,22945.000,0.300,3706.000,0.500,1063.000,1.000,732.000,5.000,0
"07/01/06","21:07:14","AMMA06",59765.000,"cc",28340.018,6.00,2834.002,1,6,0.100,30943.000,0.200,23186.000,0.300,3761.000,0.500,1137.000,1.000,738.000,5.000,0
"07/01/06","21:07:20","AMMA06",59697.000,"cc",28287.398,6.00,2828.740,1,6,0.100,31065.000,0.200,22983.000,0.300,3853.000,0.500,1100.000,1.000,695.000,5.000,1.000
"07/01/06","21:07:26","AMMA06",59610.000,"cc",28310.465,6.00,2831.047,1,6,0.100,30916.000,0.200,23237.000,0.300,3638.000,0.500,1079.000,1.000,740.000,5.000,0
"07/01/06","21:07:32","AMMA06",59731.000,"cc",28359.815,6.00,2835.982,1,6,0.100,31155.000,0.200,23100.000,0.300,3682.000,0.500,1059.000,1.000,734.000,5.000,1.000
"07/01/06","21:07:38","AMMA06",59331.000,"cc",28285.727,6.00,2828.573,1,6,0.100,30980.000,0.200,22669.000,0.300,3868.000,0.500,1101.000,1.000,713.000,5.000,0
"07/01/06","21:07:44","AMMA06",59965.000,"cc",28284.139,6.00,2828.414,1,6,0.100,31408.000,0.200,22884.000,0.300,3745.000,0.500,1178.000,1.000,749.000,5.000,1.000
"07/01/06","21:07:50","AMMA06",59911.000,"cc",28288.633,6.00,2828.864,1,6,0.100,31172.000,0.200,23107.000,0.300,3785.000,0.500,1110.000,1.000,737.000,5.000,0
"07/01/06","21:07:56","AMMA06",60105.000,"cc",28320.301,6.00,2832.030,1,6,0.100,31329.000,0.200,23076.000,0.300,3877.000,0.500,1083.000,1.000,739.000,5.000,1.000
"07/01/06","21:08:02","AMMA06",60139.000,"cc",28352.588,6.00,2835.259,1,6,0.100,31456.000,0.200,23057.000,0.300,3769.000,0.500,1147.000,1.000,710.000,5.000,0
"07/01/06","21:08:08","AMMA06",60057.000,"cc",28315.809,6.00,2831.581,1,6,0.100,31398.000,0.200,23060.000,0.300,3739.000,0.500,1109.000,1.000,749.000,5.000,2.000
"07/01/06","21:08:14","AMMA06",59522.000,"cc",28358.881,6.00,2835.888,1,6,0.100,30858.000,0.200,23092.000,0.300,3743.000,0.500,1080.000,1.000,748.000,5.000,1.000
"07/01/06","21:08:20","AMMA06",59910.000,"cc",28332.885,6.00,2833.289,1,6,0.100,31262.000,0.200,23096.000,0.300,3750.000,0.500,1115.000,1.000,687.000,5.000,0
"07/01/06","21:08:26","AMMA06",59841.000,"cc",28243.648,6.00,2824.365,1,6,0.100,31229.000,0.200,23067.000,0.300,3710.000,0.500,1147.000,1.000,687.000,5.000,1.000
"07/01/06","21:08:32","AMMA06",59691.000,"cc",28318.193,6.00,2831.820,1,6,0.100,31123.000,0.200,22865.000,0.300,3877.000,0.500,1059.000,1.000,767.000,5.000,0
"07/01/06","21:08:38","AMMA06",59213.000,"cc",28357.193,6.00,2835.720,1,6,0.100,30832.000,0.200,22873.000,0.300,3730.000,0.500,1035.000,1.000,742.000,5.000,1.000
"07/01/06","21:08:44","AMMA06",59801.000,"cc",28317.406,6.00,2831.741,1,6,0.100,31222.000,0.200,23134.000,0.300,3656.000,0.500,1080.000,1.000,709.000,5.000,0
"07/01/06","21:08:50","AMMA06",60023.000,"cc",28254.500,6.00,2825.450,1,6,0.100,31563.000,0.200,22994.000,0.300,3656.000,0.500,1110.000,1.000,699.000,5.000,1.000
"07/01/06","21:08:56","AMMA06",60184.000,"cc",28324.891,6.00,2832.489,1,6,0.100,31674.000,0.200,22940.000,0.300,3783.000,0.500,1078.000,1.000,708.000,5.000,1.000
"07/01/06","21:09:02","AMMA06",59665.000,"cc",28294.451,6.00,2829.445,1,6,0.100,31249.000,0.200,23011.000,0.300,3622.000,0.500,1097.000,1.000,686.000,5.000,0
"07/01/06","21:09:08","AMMA06",60176.000,"cc",28359.648,6.00,2835.965,1,6,0.100,31361.000,0.200,23204.000,0.300,3794.000,0.500,1106.000,1.000,711.000,5.000,0
"07/01/06","21:09:14","AMMA06",60162.000,"cc",28298.779,6.00,2829.878,1,6,0.100,31491.000,0.200,23063.000,0.300,3752.000,0.500,1107.000,1.000,748.000,5.000,1.000
"07/01/06","21:09:20","AMMA06",59841.000,"cc",28322.328,6.00,2832.233,1,6,0.100,31126.000,0.200,23106.000,0.300,3789.000,0.500,1100.000,1.000,716.000,5.000,4.000
"07/01/06","21:09:26","AMMA06",60219.000,"cc",28354.248,6.00,2835.425,1,6,0.100,31462.000,0.200,23188.000,0.300,3698.000,0.500,1139.000,1.000,732.000,5.000,0
"07/01/06","21:09:32","AMMA06",59813.000,"cc",28340.434,6.00,2834.044,1,6,0.100,31056.000,0.200,23048.000,0.300,3846.000,0.500,1132.000,1.000,730.000,5.000,1.000
"07/01/06","21:09:38","AMMA06",59992.000,"cc",28281.744,6.00,2828.175,1,6,0.100,31103.000,0.200,23299.000,0.300,3780.000,0.500,1125.000,1.000,685.000,5.000,0
"07/01/06","21:09:44","AMMA06",60447.000,"cc",28294.184,6.00,2829.419,1,6,0.100,31556.000,0.200,23431.000,0.300,3704.000,0.500,1098.000,1.000,657.000,5.000,1.000
"07/01/06","21:09:50","AMMA06",60240.000,"cc",28317.254,6.00,2831.726,1,6,0.100,31296.000,0.200,23340.000,0.300,3770.000,0.500,1088.000,1.000,746.000,5.000,0
"07/01/06","21:09:56","AMMA06",60456.000,"cc",28287.953,6.00,2828.795,1,6,0.100,31201.000,0.200,23604.000,0.300,3792.000,0.500,1165.000,1.000,693.000,5.000,1.000
"07/01/06","21:10:02","AMMA06",60452.000,"cc",28331.205,6.00,2833.121,1,6,0.100,31306.000,0.200,23465.000,0.300,3828.000,0.500,1133.000,1.000,719.000,5.000,1.000
"07/01/06","21:10:08","AMMA06",60441.000,"cc",28355.752,6.00,2835.575,1,6,0.100,31257.000,0.200,23458.000,0.300,3844.000,0.500,1167.000,1.000,715.000,5.000,0
"07/01/06","21:10:14","AMMA06",60578.000,"cc",28311.572,6.00,2831.158,1,6,0.100,31247.000,0.200,23593.000,0.300,3928.000,0.500,1100.000,1.000,710.000,5.000,0
"07/01/06","21:10:20","AMMA06",60968.000,"cc",28303.861,6.00,2830.386,1,6,0.100,31812.000,0.200,23407.000,0.300,3851.000,0.500,1128.000,1.000,768.000,5.000,2.000
"07/01/06","21:10:26","AMMA06",60470.000,"cc",28347.686,6.00,2834.769,1,6,0.100,31257.000,0.200,23563.000,0.300,3810.000,0.500,1098.000,1.000,739.000,5.000,3.000
"07/01/06","21:10:32","AMMA06",60514.000,"cc",28302.793,6.00,2830.280,1,6,0.100,31345.000,0.200,23542.000,0.300,3898.000,0.500,1064.000,1.000,665.000,5.000,0
"07/01/06","21:10:38","AMMA06",60377.000,"cc",28306.244,6.00,2830.625,1,6,0.100,31082.000,0.200,23576.000,0.300,3850.000,0.500,1111.000,1.000,756.000,5.000,2.000
"07/01/06","21:10:44","AMMA06",60723.000,"cc",28353.955,6.00,2835.396,1,6,0.100,31279.000,0.200,23673.000,0.300,3944.000,0.500,1138.000,1.000,688.000,5.000,1.000
"07/01/06","21:10:50","AMMA06",60180.000,"cc",28339.857,6.00,2833.986,1,6,0.100,31053.000,0.200,23443.000,0.300,3871.000,0.500,1107.000,1.000,706.000,5.000,0
"07/01/06","21:10:56","AMMA06",60400.000,"cc",28228.955,6.00,2822.896,1,6,0.100,31248.000,0.200,23596.000,0.300,3787.000,0.500,1041.000,1.000,726.000,5.000,2.000
"07/01/06","21:11:02","AMMA06",60651.000,"cc",28293.133,6.00,2829.314,1,6,0.100,31449.000,0.200,23481.000,0.300,3941.000,0.500,1078.000,1.000,701.000,5.000,1.000
"07/01/06","21:11:08","AMMA06",60601.000,"cc",28343.994,6.00,2834.400,1,6,0.100,31369.000,0.200,23516.000,0.300,3916.000,0.500,1080.000,1.000,719.000,5.000,1.000
"07/01/06","21:11:14","AMMA06",60425.000,"cc",28320.699,6.00,2832.070,1,6,0.100,31014.000,0.200,23601.000,0.300,3928.000,0.500,1143.000,1.000,738.000,5.000,1.000
"07/01/06","21:11:20","AMMA06",60799.000,"cc",28353.106,6.00,2835.311,1,6,0.100,31358.000,0.200,23678.000,0.300,3898.000,0.500,1119.000,1.000,745.000,5.000,1.000
"07/01/06","21:11:26","AMMA06",60681.000,"cc",28311.981,6.00,2831.198,1,6,0.100,31217.000,0.200,23711.000,0.300,3948.000,0.500,1123.000,1.000,682.000,5.000,0
"07/01/06","21:11:32","AMMA06",60171.000,"cc",28326.969,6.00,2832.697,1,6,0.100,30940.000,0.200,23512.000,0.300,3874.000,0.500,1107.000,1.000,737.000,5.000,1.000
"07/01/06","21:11:38","AMMA06",60445.000,"cc",28311.932,6.00,2831.193,1,6,0.100,31384.000,0.200,23305.000,0.300,3855.000,0.500,1115.000,1.000,786.000,5.000,0
"07/01/06","21:11:44","AMMA06",60876.000,"cc",28285.023,6.00,2828.502,1,6,0.100,31197.000,0.200,23934.000,0.300,3893.000,0.500,1111.000,1.000,741.000,5.000,0
"07/01/06","21:11:50","AMMA06",60646.000,"cc",28277.195,6.00,2827.720,1,6,0.100,31133.000,0.200,23751.000,0.300,3947.000,0.500,1077.000,1.000,737.000,5.000,1.000
"07/01/06","21:11:56","AMMA06",60693.000,"cc",28339.518,6.00,2833.952,1,6,0.100,31151.000,0.200,23687.000,0.300,4020.000,0.500,1085.000,1.000,750.000,5.000,0
"07/01/06","21:12:02","AMMA06",60160.000,"cc",28318.934,6.00,2831.894,1,6,0.100,30986.000,0.200,23392.000,0.300,3909.000,0.500,1116.000,1.000,757.000,5.000,0
"07/01/06","21:12:08","AMMA06",61018.000,"cc",28296.715,6.00,2829.672,1,6,0.100,31450.000,0.200,23863.000,0.300,3871.000,0.500,1080.000,1.000,754.000,5.000,0
"07/01/06","21:12:14","AMMA06",60595.000,"cc",28316.684,6.00,2831.669,1,6,0.100,30713.000,0.200,24085.000,0.300,3986.000,0.500,1101.000,1.000,710.000,5.000,0
"07/01/06","21:12:20","AMMA06",60848.000,"cc",28345.566,6.00,2834.557,1,6,0.100,31240.000,0.200,23826.000,0.300,3921.000,0.500,1120.000,1.000,741.000,5.000,0
"07/01/06","21:12:26","AMMA06",60412.000,"cc",28345.893,6.00,2834.589,1,6,0.100,31001.000,0.200,23707.000,0.300,3888.000,0.500,1085.000,1.000,729.000,5.000,2.000
"07/01/06","21:12:32","AMMA06",60512.000,"cc",28311.793,6.00,2831.179,1,6,0.100,30990.000,0.200,23677.000,0.300,3971.000,0.500,1124.000,1.000,748.000,5.000,2.000
"07/01/06","21:12:38","AMMA06",60667.000,"cc",28307.484,6.00,2830.749,1,6,0.100,31301.000,0.200,23626.000,0.300,3911.000,0.500,1059.000,1.000,768.000,5.000,2.000
"07/01/06","21:12:44","AMMA06",60456.000,"cc",28294.879,6.00,2829.488,1,6,0.100,31065.000,0.200,23538.000,0.300,3986.000,0.500,1099.000,1.000,768.000,5.000,0
"07/01/06","21:12:50","AMMA06",60279.000,"cc",28317.703,6.00,2831.771,1,6,0.100,30937.000,0.200,23582.000,0.300,3925.000,0.500,1101.000,1.000,734.000,5.000,0
"07/01/06","21:12:56","AMMA06",60634.000,"cc",28310.875,6.00,2831.088,1,6,0.100,31067.000,0.200,23727.000,0.300,3976.000,0.500,1110.000,1.000,754.000,5.000,0
"07/01/06","21:13:02","AMMA06",60543.000,"cc",28325.205,6.00,2832.521,1,6,0.100,31159.000,0.200,23640.000,0.300,3918.000,0.500,1092.000,1.000,733.000,5.000,1.000
"07/01/06","21:13:08","AMMA06",60567.000,"cc",28333.422,6.00,2833.342,1,6,0.100,31149.000,0.200,23714.000,0.300,3886.000,0.500,1098.000,1.000,719.000,5.000,1.000
"07/01/06","21:13:14","AMMA06",60551.000,"cc",28288.648,6.00,2828.865,1,6,0.100,30946.000,0.200,23655.000,0.300,4099.000,0.500,1093.000,1.000,757.000,5.000,1.000
"07/01/06","21:13:20","AMMA06",60726.000,"cc",28294.940,6.00,2829.494,1,6,0.100,31211.000,0.200,23673.000,0.300,4055.000,0.500,1081.000,1.000,705.000,5.000,1.000
"07/01/06","21:13:26","AMMA06",61170.000,"cc",28343.484,6.00,2834.349,1,6,0.100,31389.000,0.200,23847.000,0.300,4041.000,0.500,1125.000,1.000,768.000,5.000,0
"07/01/06","21:13:32","AMMA06",60377.000,"cc",28375.945,6.00,2837.595,1,6,0.100,30959.000,0.200,23534.000,0.300,4058.000,0.500,1074.000,1.000,752.000,5.000,0
"07/01/06","21:13:38","AMMA06",60997.000,"cc",28271.055,6.00,2827.106,1,6,0.100,31228.000,0.200,23948.000,0.300,3997.000,0.500,1093.000,1.000,731.000,5.000,0
"07/01/06","21:13:44","AMMA06",60811.000,"cc",28257.764,6.00,2825.777,1,6,0.100,31162.000,0.200,23794.000,0.300,3939.000,0.500,1125.000,1.000,791.000,5.000,0
"07/01/06","21:13:50","AMMA06",60180.000,"cc",28349.262,6.00,2834.926,1,6,0.100,31135.000,0.200,23348.000,0.300,3907.000,0.500,1068.000,1.000,721.000,5.000,1.000
"07/01/06","21:13:56","AMMA06",60711.000,"cc",28330.785,6.00,2833.079,1,6,0.100,31077.000,0.200,23797.000,0.300,4038.000,0.500,1090.000,1.000,709.000,5.000,0
"07/01/06","21:14:02","AMMA06",60676.000,"cc",28312.275,6.00,2831.228,1,6,0.100,31176.000,0.200,23713.000,0.300,3909.000,0.500,1140.000,1.000,738.000,5.000,0